Weather History for Chicopee, MA

Change the Weather History Date:

Monday, January 7, 2013

  Actual Average Record
Temperature  
Mean Temperature 25 °F -  
Max Temperature 36 °F 32 °F 59 °F (2012)
Min Temperature 13 °F 18 °F 4 °F (2014)
Degree Days  
Heating Degree Days 40    
Moisture  
Dew Point 21 °F    
Average Humidity 71    
Maximum Humidity 92    
Minimum Humidity 44    
Precipitation  
Precipitation 0.00 in - - ()
Sea Level Pressure  
Sea Level Pressure 30.24 in    
Wind  
Wind Speed 7 mph (WNW)    
Max Wind Speed 14 mph    
Max Gust Speed -    
Visibility 10 miles    
Events Rain    
Averages and records for this station are not official NWS values.
T = Trace of Precipitation, MM = Missing Value Source: NWS Daily Summary

Daily Weather History Graph

Daily Weather History Graph

Search for Another Location

Airport:

Trip Planner

Search our weather history database for the weather conditions in past years. The results will help you decide how hot, cold, wet, or windy it might be!

Date:

Astronomy

Jan. 07, 2013 Rise Set
Actual Time 7:18 AM EST 4:34 PM EST
Civil Twilight 6:47 AM EST 5:06 PM EST
Nautical Twilight 6:12 AM EST 5:41 PM EST
Astronomical Twilight 5:38 AM EST 6:15 PM EST
Moon 2:37 AM EST (1/7) 12:44 PM EST (1/7)
Length of Visible Light 10h 18m
Length of Day
9h 16m
Waning Crescent, 23% of the Moon is Illuminated
Jan 7
Waning Crescent
Jan 11
New
Jan 18
First Quarter
Jan 26
Full
Feb 3
Last Quarter

Hourly Weather History & Observations

Time (EST) Temp. Windchill Dew Point Humidity Pressure Visibility Wind Dir Wind Speed Gust Speed Precip Events Conditions
12:55 AM 34.7 °F 26.9 °F 26.6 °F 72% 30.00 in 10.0 mi SW 10.4 mph - N/A   Overcast
1:55 AM 35.2 °F 28.1 °F 26.8 °F 71% 30.02 in 10.0 mi WSW 9.2 mph - N/A   Mostly Cloudy
2:05 AM 35.6 °F 27.5 °F 26.6 °F 70% 30.03 in 10.0 mi WSW 11.5 mph - N/A Rain Light Rain
2:17 AM 35.6 °F 28.6 °F 26.6 °F 70% 30.03 in 10.0 mi WSW 9.2 mph - N/A   Overcast
2:55 AM 34.9 °F 28.3 °F 27.0 °F 73% 30.04 in 10.0 mi WSW 8.1 mph - 0.00 in   Overcast
3:55 AM 33.8 °F 27.7 °F 27.3 °F 77% 30.05 in 10.0 mi WSW 6.9 mph - N/A   Overcast
4:55 AM 31.5 °F 24.2 °F 26.1 °F 80% 30.07 in 10.0 mi SW 8.1 mph - N/A   Overcast
5:55 AM 33.1 °F 26.9 °F 26.8 °F 78% 30.11 in 10.0 mi WSW 6.9 mph - N/A   Mostly Cloudy
6:55 AM 31.8 °F 26.2 °F 26.8 °F 82% 30.14 in 10.0 mi WSW 5.8 mph - N/A   Overcast
7:55 AM 31.3 °F - 25.5 °F 79% 30.17 in 10.0 mi Calm Calm - N/A   Partly Cloudy
8:55 AM 32.2 °F 27.7 °F 26.1 °F 78% 30.22 in 10.0 mi North 4.6 mph - N/A   Mostly Cloudy
9:55 AM 34.7 °F 28.8 °F 24.8 °F 67% 30.28 in 10.0 mi North 6.9 mph - N/A   Scattered Clouds
10:55 AM 36.3 °F 28.0 °F 22.3 °F 57% 30.29 in 10.0 mi North 12.7 mph - N/A   Clear
11:55 AM 36.1 °F 27.3 °F 21.2 °F 55% 30.30 in 10.0 mi NW 13.8 mph - N/A   Clear
12:55 PM 35.8 °F 27.8 °F 21.2 °F 55% 30.30 in 10.0 mi NW 11.5 mph - N/A   Clear
1:55 PM 36.1 °F 29.9 °F 18.9 °F 50% 30.33 in 10.0 mi NNW 8.1 mph - N/A   Clear
2:55 PM 36.5 °F 30.3 °F 16.2 °F 44% 30.35 in 10.0 mi NNW 8.1 mph - N/A   Clear
3:55 PM 34.9 °F 32.0 °F 16.0 °F 46% 30.36 in 10.0 mi North 3.5 mph - N/A   Clear
4:55 PM 30.7 °F 24.1 °F 17.2 °F 57% 30.38 in 10.0 mi West 6.9 mph - N/A   Clear
5:55 PM 25.0 °F - 16.9 °F 71% 30.39 in 10.0 mi Calm Calm - N/A   Clear
6:55 PM 20.3 °F - 15.6 °F 82% 30.40 in 10.0 mi Calm Calm - N/A   Clear
7:55 PM 19.6 °F - 14.5 °F 81% 30.38 in 10.0 mi Calm Calm - N/A   Clear
8:55 PM 18.0 °F - 13.3 °F 82% 30.38 in 10.0 mi Calm Calm - N/A   Clear
9:55 PM 14.9 °F - 12.9 °F 92% 30.38 in 10.0 mi Calm Calm - N/A   Clear
10:55 PM 14.2 °F - 12.0 °F 91% 30.38 in 10.0 mi Calm Calm - N/A   Clear
11:55 PM 13.8 °F - 11.7 °F 91% 30.37 in 10.0 mi Calm Calm - N/A   Clear